Regional Weather Roundup
Issued by NWS

Home | Current Version | Previous Version | Graphics & Text | Print | Product List | Glossary On
Versions: 1 2 3 4 5 6 7 8 9 10 11 12 13 14 15 16 17 18 19 20 21 22 23 24 25 26 27 28 29 30 31 32 33 34 35 36 37 38 39 40 41 42 43 44 45 46 47 48 49 50
000
ASUS45 KSLC 291510
RWRUT

UTAH REGIONAL WEATHER ROUNDUP
NATIONAL WEATHER SERVICE SALT LAKE CITY UT
900 AM MDT MON SEP 29 2014

UTZ001>011-023>025-291600-

NORTHERN UTAH

CITY           SKY/WX    TMP DP  RH WIND       PRES   REMARKS
HILL AFB       PTSUNNY   51  43  75 SE9       30.01R
LOGAN          NOT AVBL
OGDEN          PTSUNNY   52  46  80 CALM      30.00R
PROVO AIRPORT  MOSUNNY   54  43  66 S7        30.03R
SALT LAKE CITY MOSUNNY   53  46  77 SE7       29.99R
VERNAL         CLOUDY    47  44  90 CALM      30.05S
WENDOVER       CLOUDY    52  43  71 CALM      29.99R
HEBER CITY     CLOUDY    45  41  87 CALM      30.05S
WEST JORDAN    CLOUDY    52  46  82 S10       30.01R

$$

UTZ012>022-026-027-291600-

SOUTHERN UTAH

CITY           SKY/WX    TMP DP  RH WIND       PRES   REMARKS
BRYCE CANYON   PTSUNNY   40  38  93 NE5       30.11R
CEDAR CITY     SUNNY     48  41  76 W5        30.04R
MILFORD        SUNNY    N/A N/A N/A S8        30.02R
MOAB/CYNLANDS  SUNNY     52  50  93 NW6       30.00S
PRICE          CLOUDY    47  44  90 N3        30.05S
ST GEORGE      MOSUNNY   61  45  55 E6        29.99R

$$

REGIONAL REPORTS     COLORADO/ARIZONA

CITY           SKY/WX    TMP DP  RH WIND       PRES   REMARKS
CRAIG, CO      MOSUNNY   49  44  83 CALM      30.07S
GRAND JUNCTION CLOUDY    52  48  86 E9        30.01F
RIFLE          PTSUNNY   49  46  90 CALM      30.05F
MONTROSE       PTSUNNY   50  48  93 CALM      30.07F
CORTEZ         SUNNY     55  50  83 CALM      30.07F
PAGE, AZ       NOT AVBL
GRAND CANYON   PTSUNNY   47  39  74 CALM      30.10F
KINGMAN        NOT AVBL
FLAGSTAFF      CLOUDY    44  35  70 CALM      30.13R

$$

REGIONAL REPORTS    NEVADA/IDAHO/WYOMING

CITY           SKY/WX    TMP DP  RH WIND       PRES   REMARKS
LAS VEGAS, NV  MOSUNNY   66  45  46 S9        29.91R
ELY            MOSUNNY   37  34  89 S10       30.06F WCI  30
ELKO           CLOUDY    48  39  71 W6        30.03R
POCATELLO, ID  PTSUNNY   47  45  93 CALM      30.00F
BURLEY         CLOUDY    47  44  90 CALM      29.98S
EVANSTON, WY   CLOUDY    41  39  93 SE3       30.07R
ROCK SPRINGS   CLOUDY    44  40  85 SE8       30.05F

$$


USA.gov is the U.S. government's official web portal to all federal, state and local government web resources and services.